Torna al catalogo

NOAA 16 DEB

AttivoSSO
NORAD 41063·DEBRIS·🇺🇸 United States

Lanciato Sep 21, 2000 da Vandenberg Space Force Base

Loading…

Prossimi Passaggi (prossime 24 ore)

TLE

AggiornatoSource: Space-Track

Epoca: Sep 14, 2026, 04:26 UTC

1 41063U 00055W   26257.18492389  .00001908  00000-0  82333-3 0  9990
2 41063  98.7476 338.5386 0021857 169.8755 190.2869 14.25546595557555

Traccia NOAA 16 DEB in tempo reale con AllMySat

Download on the App Store